CZ-2D DEB, 35272

Orbit data source: Space-Track

CZ-2D DEB, 35272 is space debris in SSO originally from a launch on Tue, 05 Jul 2005 UTC launched from the Jiuquan Satellite Launch Center, China (JSC). Debris objects in space refer to the collection of defunct objects orbiting the Earth. Examples of debris include non-operational satellites, rocket bodies, and fragments generated from explosions, collisions, or faulty payload assembly.

Loading next visibility...
Identifier
35272, 2005-024L
Orbit
SSO
Country
Flag of CNCN / PRC
Related business
Manufacturer
Unknown
Mission
Spacecraft
Bus & Motor
Unknown
Mass
Unknown
Launch date (UTC)
2005-07-05 (20 years ago)
Launch vehicle
Unknown
Launch site
Jiuquan Satellite Launch Center, China (JSC)
Object type
Payload
Rocket body
Debris
Shape & HBR
Unknown shape, 0.1 m
Radar Cross Section
Small (<0.1 m²)

Expand to show TLE details & history
Last TLE update: 5 hours ago

TLE from 5 hours ago
0 CZ-2D DEB
1 35272U 05024L   25291.32442518  .00052045  00000-0  65243-3 0  9997
2 35272  97.1958 316.9978 0003596 325.1843  34.9178 15.59595072101408
Epoch: 2025-10-18T07:47Z
TLE epoch observation values (Epoch: 2025-10-18T07:47:10.335Z)
Latitude
-0.00006°
Longitude
173.14767°
Altitude
389.982 km
Speed
7.677 km/s
True Right ascension
21h 07m 59s
True Declination
0° 00' 00"
Sunlit
Object was in full shadow at epoch
Visualization orbit readout
Latitude
Unknown
Longitude
Unknown
Altitude
Unknown
Speed
Unknown
Apparent Right ascension
Unknown
Apparent Declination
Unknown
Sunlit
N/A
Visualization observer readout
Local Sidereal Time
07:13:21
Azimuth
Unknown
Elevation
Unknown
Doppler factor
Unknown
Orbital elements
Apogee altitude
388.165 km
Perigee altitude
383.3 km
Semi-major axis
6,763.869 km
Eccentricity
0.00036
Inclination
97.1958°
RAAN
316.9978°
Arg. of periapsis
325.1843°
True anomaly
34.9414°
Mean anomaly
34.9178°
Eccentric anomaly
34.9296°
Mean motion
3.90167 °/min
Orbital period
92.27 mins
BSTAR
0.00065243
Loading maneuver chart data...
Computing Atmospheric mass density...
Loading historical data...
Loading historical data...
Loading historical data...
Loading historical data...
Loading historical data...
Loading historical data...
Loading historical data...

Documentation

Showing up to 5 results
|